Regional Weather Roundup
Issued by NWS Northern Indiana

Home | Current Version | Previous Version | Text Only | Print | Product List | Glossary On
Versions: 1 2 3 4 5 6 7 8 9 10 11 12 13 14 15 16 17 18 19 20 21 22 23 24 25 26 27 28 29 30 31 32 33 34 35 36 37 38 39 40 41 42 43 44 45 46 47 48 49 50
000
ASUS43 KIWX 221710
RWRIWX

KIWX WEATHER ROUNDUP
NATIONAL WEATHER SERVICE NORTHERN INDIANA
100 PM EDT TUE AUG 22 2017

NOTE: "FAIR" INDICATES FEW OR NO CLOUDS BELOW 12,000 FEET WITH NO
SIGNIFICANT WEATHER AND/OR OBSTRUCTIONS TO VISIBILITY.

* THESE STATIONS ARE NOT UNDER NWS QUALITY CONTROL. THEY ALSO MAY NOT
  REPORT WEATHER SUCH AS PRECIPITATION OR FOG.

INZ001>027-221800-
NORTHERN INDIANA

CITY           SKY/WX    TMP DP  RH WIND       PRES   REMARKS
GARY*          PTSUNNY   77  64  65 W18       29.89R
VALPARAISO     CLOUDY    75  67  76 W12       29.90R
MICHIGAN CITY* CLOUDY    72  68  88 W9G17     29.89R
LAPORTE*       CLOUDY    75  66  73 W13G22    29.89S
KNOX*          CLOUDY    75  68  78 W12G20    29.89R
SOUTH BEND     CLOUDY    74  68  81 W16       29.88R
ELKHART*       CLOUDY    75  66  73 W14G20    29.86S
GOSHEN         CLOUDY    77  66  68 W15       29.86F
MONTICELLO*    CLOUDY    75  69  81 W10       29.91S
LOGANSPORT*    CLOUDY    73  68  83 SW10      29.92F
ROCHESTER*     CLOUDY    77  68  73 SW13G18   29.90S
WARSAW*        CLOUDY    75  68  78 W12G20    29.88S
AUBURN*        CLOUDY    73  64  73 SW9       29.88S
FORT WAYNE     PTSUNNY   73  66  78 SW10      29.90S
HUNTINGTON*    PTSUNNY   72  69  90 SW9       29.91R
PERU/GRISSOM   PTSUNNY   73  70  88 SW12      29.91R
MARION*        CLOUDY    73  68  83 SW15      29.94R

$$
INZ028>050-221800-
CENTRAL INDIANA

CITY           SKY/WX    TMP DP  RH WIND       PRES   REMARKS
LAFAYETTE      CLOUDY    74  69  85 SW9       29.91F
KOKOMO*        CLOUDY    73  69  87 SW12      29.94R
MUNCIE*        CLOUDY    75  68  78 SW6       29.93S
INDIANAPOLIS   CLOUDY    74  70  87 SW12      29.94F

$$
MIZ043>046-050>051-056>058-064>065-071>073-077>080-221800-
SOUTHWEST LOWER MICHIGAN

CITY           SKY/WX    TMP DP  RH WIND       PRES   REMARKS
BATTLE CREEK   CLOUDY    75  66  73 W16G28    29.84R
BENTON HARBOR  CLOUDY    71  62  73 NW12G26   29.87R
COLDWATER*     CLOUDY    76  67  74 W17G28    29.84F
HILLSDALE*     CLOUDY    73  64  73 W14G21    29.84S
HOLLAND        CLOUDY    72  63  73 NW12G23   29.84S
GRAND RAPIDS   CLOUDY    72  64  76 W20G25    29.81R
KALAMAZOO      CLOUDY    76  63  64 W13G24    29.84R
STURGIS*       CLOUDY    73  67  81 W12       29.85S
THREE RIVERS*  CLOUDY    76  67  72 W10G20    29.85S

$$
OHZ001>008-015>018-024>025-221800-
NORTHWEST OHIO

CITY           SKY/WX    TMP DP  RH WIND       PRES   REMARKS
DEFIANCE       CLOUDY    74  66  76 SW13      29.87S
FINDLAY        LGT RAIN  74  67  78 SW12      29.87F
TOLEDO EXPRESS CLOUDY    74  68  81 SW16      29.84F
TOLEDO METCALF CLOUDY    75  69  81 SW20G25   29.84F
LIMA           LGT RAIN  73  69  87 SW15      29.90F

$$
AND FOR LAKE MICHIGAN COASTAL AND OPEN LAKE BUOY OBSERVATIONS

STATION/POSITION TEMP    WIND        PRES    VSBY  WAVE
                 AIR SEA DIR/SP/G                  HT/PER
                 (F)     (DEG/KT/KT) (MB)    (MI)  (FT/S)
CALUMET HARBOR    75     280/  7/ 14 1011.4R
MICHIGAN CITY     72     250/ 19/ 21   N/A
BURNS HARBOR      73     290/ 12/ 15 1012.2R
SAINT JOSEPH      72     300/ 15/ 19 1012.5
SOUTH LAKE BUOY   70 71  310/ 17/ 19 1010.6R         4/ 5
4 MI NW BRIDGMAN  72 73  330/ 17/ 23 1011.5          5/ 5
MICHIGAN CITY     73 74  280/ 14/ 19   N/A           4/ 4

$$
&&



USA.gov is the U.S. government's official web portal to all federal, state and local government web resources and services.